Location: Newark
(51.3318°N, 0.0053°E)
Time: 07:32:14
(UTC+00:00)

CAS-6 - Pass Details

Date: 08 July 2022
Orbit: 613 x 634 km, 97.9° (Epoch: 09 August)

Event Time Altitude Azimuth Distance (km) Brightness Sun altitude
Exits shadow 23:49:40 - 239° (WSW) 2,366 ? -16.2°
Reaches altitude 10° 23:52:30 10° 273° (W) 1,994 ? -16.2°
Maximum altitude 23:52:42 10° 275° (W) 1,992 ? -16.2°
Drops below altitude 10° 23:52:53 10° 278° (W) 1,994 ? -16.2°
Sets 23:57:44 0° 327° (NNW) 2,903 ? -16.3°
